GPS BIIF-10 (40730 NORAD) Tracking and Keplerian Element Data

This shows tracking and keplerian element data for the satellite.

Feedback or suggestion? Click here.




ElementValue
Catalog40730
NameGPS BIIF-10
Epoch Orbit2639
Epoch Day51.83929647
Epoch Year2019
RAAN15.2594
Inclination55.5902
Eccentricity0.0043692
Argument of Perigee337.7459
Mean Anonmoly22.0528
Mean Motion2.00560811
Decay Rate-7.7E-07
L11 40730U 15033A 19051.83929647 -.00000077 00000-0 00000+0 0 9994
L22 40730 55.5902 15.2594 0043692 337.7459 22.0528 2.00560811 26392

Live tracking and technical data element details for GPS BIIF-10 (NORAD 40730). GPS BIIF-10 can be tracked NOW for your location showing map with azimuth and elevation plus other details from your city location.

Track the satellite on the map from your city or location and see movement details for azimuth, elevation, latitude, longitude, range, height, and movement on the map or in text.







IsCatalogInMostPopularTable: catalog: 40730, numindb: 173
Update: records affected: 1



GetName: 40730 GPS BIIF-10

Hit Count: updated at: Fri, 22 Feb 2019 22:09:06 GMT